This is the latest recevied weather packets stored in our database for station/object KD2VWU. If no packets are shown the sender has not sent any weather packets the latest 10 day(s).
| Time | Temp. | Humidity | Pressure | Rain* | Wind** | Luminosity | Snow |
|---|---|---|---|---|---|---|---|
| 1777928971 | 21.11° C | 37% | 1005.7 hPa | 0 mm | - | - | - |
| 1777928364 | 21.67° C | 39% | 1005.7 hPa | 0 mm | - | - | - |
| 1777927760 | 21.11° C | 36% | 1005.6 hPa | 0 mm | - | - | - |
| 1777927458 | 21.11° C | 39% | 1005.8 hPa | 0 mm | - | - | - |
| 1777926247 | 21.67° C | 39% | 1006 hPa | 0 mm | - | - | - |
| 1777925338 | 22.22° C | 37% | 1006.1 hPa | 0 mm | - | - | - |
| 1777925034 | 22.22° C | 35% | 1006.2 hPa | 0 mm | - | - | - |
| 1777924731 | 21.67° C | 34% | 1006.2 hPa | 0 mm | - | - | - |
| 1777924123 | 21.67° C | 36% | 1006.1 hPa | 0 mm | - | - | - |
| 1777923516 | 22.78° C | 36% | 1006.2 hPa | 0 mm | - | - | - |
| 1777923213 | 21.67° C | 37% | 1006.2 hPa | 0 mm | - | - | - |
| 1777922912 | 21.67° C | 36% | 1006.3 hPa | 0 mm | - | - | - |
| 1777922609 | 22.22° C | 35% | 1006.3 hPa | 0 mm | - | - | - |
| 1777922307 | 21.67° C | 35% | 1006.2 hPa | 0 mm | - | - | - |
| 1777922005 | 22.22° C | 35% | 1006.4 hPa | 0 mm | - | - | - |
| 1777921700 | 22.22° C | 36% | 1006.5 hPa | 0 mm | - | - | - |
| 1777919878 | 21.67° C | 37% | 1006.7 hPa | 0 mm | - | - | - |
| 1777919575 | 21.67° C | 36% | 1006.9 hPa | 0 mm | - | - | - |
| 1777919273 | 21.11° C | 39% | 1006.7 hPa | 0 mm | - | - | - |
| 1777918970 | 21.11° C | 35% | 1007 hPa | 0 mm | - | - | - |
| 1777918668 | 21.11° C | 39% | 1007 hPa | 0 mm | - | - | - |
| 1777918365 | 21.11° C | 37% | 1007 hPa | 0 mm | - | - | - |
| 1777918064 | 20.56° C | 36% | 1007.2 hPa | 0 mm | - | - | - |
| 1777917762 | 20.56° C | 36% | 1007 hPa | 0 mm | - | - | - |
| 1777917459 | 21.11° C | 36% | 1007.6 hPa | 0 mm | - | - | - |
* Rain latest hour (hover to see other rain measurements)
** Current wind speed in m/s (hover to see current wind gust speed)